Wichita Falls, TX

12:16 AM CDT on April 27, 2017 (GMT -0500)
Sheppard Air Force Base-Wichita Falls Municipal

Weather History for KSPS - November, 2013

Change the Weather History Date:

Sunday, November 17, 2013

  Actual Average Record
Temperature  
Mean Temperature 65 °F 52 °F  
Max Temperature 79 °F 64 °F 86 °F (1938)
Min Temperature 50 °F 40 °F 15 °F (1959)
Degree Days  
Heating Degree Days 0 13  
Month to date heating degree days 188 171  
Since 1 July heating degree days 290 297  
Cooling Degree Days 0 0  
Month to date cooling degree days 8 10  
Year to date cooling degree days 2628 2386  
Growing Degree Days 16 (Base 50)    
Moisture  
Dew Point 43 °F    
Average Humidity 51    
Maximum Humidity 84    
Minimum Humidity 17    
Precipitation  
Precipitation 0.00 in 0.05 in 2.06 in (1984)
Month to date precipitation 0.23 1.04  
Year to date precipitation 19.63 26.69  
Snow  
Snow 0.00 in 0.00 in - ()
Month to date snowfall 0.0 0.1  
Since 1 July snowfall 0.0 0.1  
Snow Depth -    
Sea Level Pressure  
Sea Level Pressure 29.80 in    
Wind  
Wind Speed 13 mph (WNW)    
Max Wind Speed 22 mph    
Max Gust Speed 26 mph    
Visibility 10 miles    
Events      
T = Trace of Precipitation, MM = Missing Value Source: NWS Daily Summary

Daily Weather History Graph

Daily Weather History Graph

Search for Another Location

Airport or City:

Trip Planner

Search our weather history database for the weather conditions in past years. The results will help you decide how hot, cold, wet, or windy it might be!

Date:

Astronomy

Nov. 17, 2013 Rise Set
Actual Time 7:08 AM CST 5:29 PM CST
Civil Twilight 6:41 AM CST 5:55 PM CST
Nautical Twilight 6:11 AM CST 6:26 PM CST
Astronomical Twilight 5:41 AM CST 6:55 PM CST
Moon 5:47 PM CST (11/17) 7:04 AM CST (11/17)
Length of Visible Light 11h 13m
Length of Day
10h 20m
Full, 100% of the Moon is Illuminated
Nov 17
Full
Nov 25
Last Quarter
Dec 2
New
Dec 9
First Quarter
Dec 17
Full

Hourly Weather History & Observations

Time (CST) Temp. Dew Point Humidity Pressure Visibility Wind Dir Wind Speed Gust Speed Precip Events Conditions
12:52 AM 69.1 °F 59.0 °F 70% 29.61 in 10.0 mi SSW 17.3 mph 23.0 mph N/A   Clear
1:52 AM 69.1 °F 59.0 °F 70% 29.60 in 10.0 mi SSW 17.3 mph 26.5 mph N/A   Mostly Cloudy
2:52 AM 66.9 °F 59.0 °F 76% 29.60 in 10.0 mi SSW 16.1 mph - N/A   Mostly Cloudy
3:52 AM 66.0 °F 59.0 °F 78% 29.62 in 10.0 mi SW 15.0 mph - N/A   Clear
4:52 AM 64.9 °F 59.0 °F 81% 29.62 in 10.0 mi SW 15.0 mph - N/A   Clear
5:52 AM 64.0 °F 59.0 °F 84% 29.64 in 10.0 mi SW 15.0 mph - N/A   Clear
6:52 AM 63.0 °F 57.9 °F 84% 29.67 in 10.0 mi SW 15.0 mph - N/A   Clear
7:52 AM 64.0 °F 57.0 °F 78% 29.71 in 10.0 mi SW 15.0 mph - N/A   Clear
8:52 AM 68.0 °F 55.0 °F 63% 29.74 in 10.0 mi WSW 15.0 mph - N/A   Clear
9:52 AM 72.0 °F 48.9 °F 44% 29.78 in 10.0 mi West 13.8 mph - N/A   Clear
10:52 AM 75.0 °F 43.0 °F 32% 29.79 in 10.0 mi West 12.7 mph - N/A   Clear
11:52 AM 78.1 °F 32.0 °F 19% 29.79 in 10.0 mi NW 10.4 mph - N/A   Clear
12:52 PM 78.1 °F 30.0 °F 17% 29.79 in 10.0 mi NW 15.0 mph 25.3 mph N/A   Clear
1:52 PM 78.1 °F 30.0 °F 17% 29.79 in 10.0 mi NW 10.4 mph - N/A   Clear
2:52 PM 78.1 °F 30.9 °F 18% 29.80 in 10.0 mi North 3.5 mph - N/A   Clear
3:52 PM 77.0 °F 30.9 °F 19% 29.83 in 10.0 mi North 10.4 mph - N/A   Clear
4:52 PM 73.0 °F 34.0 °F 24% 29.85 in 10.0 mi North 8.1 mph - N/A   Clear
5:52 PM 62.1 °F 37.9 °F 41% 29.88 in 10.0 mi NNE 9.2 mph - N/A   Clear
6:52 PM 63.0 °F 36.0 °F 37% 29.91 in 10.0 mi NNE 12.7 mph - N/A   Clear
7:52 PM 62.1 °F 32.0 °F 32% 29.95 in 10.0 mi North - - N/A   Clear
8:52 PM 57.9 °F 32.0 °F 37% 29.98 in 10.0 mi NE 9.2 mph - N/A   Clear
9:52 PM 55.0 °F 33.1 °F 43% 30.01 in 10.0 mi NNE 12.7 mph - N/A   Clear
10:52 PM 52.0 °F 33.1 °F 49% 30.04 in 10.0 mi NE 8.1 mph - N/A   Clear
11:52 PM 52.0 °F 30.0 °F 43% 30.05 in 10.0 mi NE 10.4 mph - N/A   Clear